TimeCDT,TemperatureF,Dew PointF,Humidity,Sea Level PressureIn,VisibilityMPH,Wind Direction,Wind SpeedMPH,Gust SpeedMPH,PrecipitationIn,Events,Conditions,WindDirDegrees,DateUTC
12:15 AM,84.2,71.8,66,29.81,10.0,ESE,4.6,-,N/A,,Clear,110,2013-08-08 05:15:00
12:35 AM,83.5,72.1,69,29.81,10.0,East,5.8,-,N/A,Thunderstorm,Clear,100,2013-08-08 05:35:00
12:55 AM,82.9,71.8,69,29.81,10.0,SE,3.5,-,N/A,,Clear,130,2013-08-08 05:55:00
1:15 AM,81.7,71.6,71,29.80,10.0,ESE,4.6,-,N/A,,Clear,110,2013-08-08 06:15:00
1:35 AM,81.7,70.9,70,29.80,10.0,East,4.6,-,N/A,,Clear,90,2013-08-08 06:35:00
1:55 AM,82.4,70.7,68,29.83,10.0,West,8.1,-,N/A,,Scattered Clouds,280,2013-08-08 06:55:00
2:15 AM,84.2,70.5,63,29.82,10.0,South,3.5,-,N/A,Thunderstorm,Scattered Clouds,170,2013-08-08 07:15:00
2:35 AM,85.1,69.1,59,29.83,10.0,Calm,Calm,-,N/A,Thunderstorm,Clear,0,2013-08-08 07:35:00
2:55 AM,86.9,66.6,51,29.81,10.0,WSW,6.9,-,N/A,,Clear,250,2013-08-08 07:55:00
3:15 AM,84.7,67.3,56,29.81,10.0,South,5.8,-,N/A,,Scattered Clouds,180,2013-08-08 08:15:00
3:35 AM,82.9,68.0,60,29.81,10.0,SE,4.6,-,N/A,,Clear,140,2013-08-08 08:35:00
3:55 AM,81.3,68.2,64,29.81,10.0,SE,3.5,-,N/A,,Clear,140,2013-08-08 08:55:00
4:15 AM,80.1,68.2,67,29.81,10.0,SSE,5.8,-,N/A,,Clear,160,2013-08-08 09:15:00
4:35 AM,81.5,67.5,62,29.81,10.0,Calm,Calm,-,N/A,,Clear,0,2013-08-08 09:35:00
4:55 AM,78.3,68.9,73,29.80,10.0,Calm,Calm,-,N/A,,Clear,0,2013-08-08 09:55:00
5:15 AM,77.5,72.1,83,29.80,10.0,North,4.6,-,N/A,,Clear,350,2013-08-08 10:15:00
5:35 AM,78.6,71.1,78,29.81,10.0,North,8.1,-,N/A,,Clear,350,2013-08-08 10:35:00
5:55 AM,77.9,70.9,79,29.82,10.0,North,4.6,-,N/A,,Clear,10,2013-08-08 10:55:00
6:15 AM,77.5,70.9,80,29.82,10.0,East,4.6,-,N/A,,Clear,80,2013-08-08 11:15:00
6:35 AM,75.7,70.9,85,29.82,10.0,NE,3.5,-,N/A,,Clear,50,2013-08-08 11:35:00
6:55 AM,77.0,69.8,78,29.84,10.0,NNE,4.6,-,N/A,,Clear,30,2013-08-08 11:55:00
7:55 AM,78.8,71.6,78,29.87,7.0,Calm,Calm,-,N/A,,Clear,0,2013-08-08 12:55:00
9:55 AM,86.0,75.2,70,29.89,7.0,ENE,11.5,-,N/A,,Clear,60,2013-08-08 14:55:00
1:55 PM,95.0,75.2,53,29.85,7.0,ESE,4.6,-,N/A,,Clear,110,2013-08-08 18:55:00
2:55 PM,95.0,73.4,49,29.84,10.0,ESE,3.5,-,N/A,,Clear,110,2013-08-08 19:55:00
4:55 PM,98.6,69.8,39,29.82,10.0,SSW,4.6,-,N/A,,Clear,200,2013-08-08 21:55:00
5:55 PM,96.8,68.0,39,29.79,10.0,Calm,Calm,-,N/A,,Clear,0,2013-08-08 22:55:00
7:55 PM,87.8,73.4,62,29.80,10.0,Calm,Calm,-,N/A,,Clear,0,2013-08-09 00:55:00
8:55 PM,84.2,73.4,70,29.82,10.0,Calm,Calm,-,N/A,,Clear,0,2013-08-09 01:55:00
9:55 PM,82.4,77.0,84,29.83,10.0,Calm,Calm,-,N/A,,Clear,0,2013-08-09 02:55:00
11:35 PM,82.0,77.5,86,29.87,7.0,NNE,6.9,-,0.03,Rain,Rain,30,2013-08-09 04:35:00
11:55 PM,79.2,76.8,92,29.89,4.0,East,6.9,-,0.09,Rain,Light Rain,90,2013-08-09 04:55:00